FW5236 Weather Reports


Display with metric or nautical units.
time (UTC)temp
F
wind
direction
speed
MPH
gust
MPH
rain 1hr
in
rain 24hr
in
rain mn
in
humidity
%
barometer
mb
20260509203031 78 134 1.0 4.0 0.00 0.00 0.00 33 1021.7
20260509201530 78 95 1.0 6.0 0.00 0.00 0.00 34 1022.0
20260509200103 77 91 0.0 3.0 0.00 0.00 0.00 34 1022.2
20260509193031 76 153 0.0 5.0 0.00 0.00 0.00 36 1022.5
20260509191530 74 148 0.0 4.0 0.00 0.00 0.00 37 1022.9
20260509190107 74 129 0.0 3.0 0.00 0.00 0.00 38 1023.0
20260509184531 74 72 1.0 5.0 0.00 0.00 0.00 39 1023.1
20260509183031 73 79 0.0 3.0 0.00 0.00 0.00 41 1023.3
20260509181606 72 86 0.0 4.0 0.00 0.00 0.00 41 1023.3
20260509174616 70 97 0.0 3.0 0.00 0.00 0.00 43 1023.5
20260509173031 71 64 0.0 2.0 0.00 0.00 0.00 43 1023.6
20260509170029 69 90 0.0 3.0 0.00 0.00 0.00 46 1023.9
20260509164533 67 111 0.0 2.0 0.00 0.00 0.00 47 1024.0
20260509161530 65 112 0.0 2.0 0.00 0.00 0.00 51 1024.4
20260509160036 63 141 0.0 0.0 0.00 0.00 0.00 54 1024.3
20260509154607 60 173 0.0 1.0 0.00 0.00 0.00 60 1024.3
20260509151530 54 225 0.0 1.0 0.00 0.00 0.00 69 1024.4
20260509150152 51 225 0.0 2.0 0.00 0.00 0.00 73 1024.5
20260509144531 49 238 2.0 4.0 0.00 0.00 0.00 76 1024.4
20260509141532 45 240 2.0 5.0 0.00 0.00 0.00 81 1024.4
20260509140030 44 232 3.0 6.0 0.00 0.00 0.00 83 1024.3
20260509134531 43 236 2.0 4.0 0.00 0.00 0.00 85 1024.3
20260509133145 42 234 3.0 5.0 0.00 0.00 0.00 86 1024.1
20260509131603 42 232 2.0 5.0 0.00 0.00 0.00 86 1023.8
20260509130033 41 249 1.0 4.0 0.00 0.00 0.00 86 1023.6
20260509124603 42 225 0.0 1.0 0.00 0.00 0.00 85 1023.6
20260509123031 42 230 1.0 4.0 0.00 0.00 0.00 84 1023.7
20260509121531 42 240 2.0 4.0 0.00 0.00 0.00 83 1023.7
20260509120030 44 238 2.0 4.0 0.00 0.00 0.00 82 1023.7
20260509114646 43 250 1.0 3.0 0.00 0.00 0.00 82 1023.7
20260509113108 44 247 1.0 4.0 0.00 0.00 0.00 81 1023.7
20260509111532 44 236 2.0 6.0 0.00 0.00 0.00 80 1023.8
20260509104607 46 253 1.0 4.0 0.00 0.00 0.00 78 1023.6
20260509103030 46 258 1.0 4.0 0.00 0.00 0.00 77 1023.6
20260509101645 47 256 1.0 3.0 0.00 0.00 0.00 75 1023.8
20260509100029 48 239 1.0 3.0 0.00 0.00 0.00 73 1023.8
20260509094529 51 272 1.0 4.0 0.00 0.00 0.00 69 1023.8
20260509093032 52 344 1.0 5.0 0.00 0.00 0.00 69 1023.6
20260509090030 51 313 2.0 5.0 0.00 0.00 0.00 68 1024.0
20260509084530 53 278 1.0 4.0 0.00 0.00 0.00 67 1024.3
20260509083144 53 299 1.0 3.0 0.00 0.00 0.00 67 1024.4
20260509081531 53 166 0.0 3.0 0.00 0.00 0.00 67 1024.4
20260509080107 54 347 0.0 3.0 0.00 0.00 0.00 64 1024.3
20260509074531 55 349 3.0 9.0 0.00 0.00 0.00 63 1024.1
20260509073031 56 355 3.0 8.0 0.00 0.00 0.00 62 1024.0
20260509071532 56 1 2.0 8.0 0.00 0.00 0.00 61 1024.1
20260509070033 57 9 2.0 8.0 0.00 0.00 0.00 61 1024.1
20260509064530 56 22 2.0 8.0 0.00 0.00 0.00 61 1024.1
20260509063029 56 12 1.0 7.0 0.00 0.00 0.00 62 1024.2
20260509061539 56 342 1.0 5.0 0.00 0.00 0.00 61 1024.1
20260509060032 56 338 1.0 5.0 0.00 0.00 0.00 60 1024.2
20260509054606 57 355 1.0 10.0 0.00 0.00 0.00 60 1024.0
20260509053030 57 5 2.0 10.0 0.00 0.00 0.00 60 1023.8
20260509051530 57 359 2.0 7.0 0.00 0.00 0.00 59 1023.8
20260509050031 57 348 3.0 10.0 0.00 0.00 0.00 58 1023.6
20260509044528 57 346 4.0 9.0 0.00 0.00 0.00 58 1023.5
20260509043032 57 347 3.0 7.0 0.00 0.00 0.00 57 1023.4
20260509041537 58 3 3.0 12.0 0.00 0.00 0.00 57 1023.4
20260509040026 58 5 3.0 9.0 0.00 0.00 0.00 57 1023.3
20260509034605 57 21 1.0 6.0 0.00 0.00 0.00 57 1023.3
20260509033032 58 35 0.0 5.0 0.00 0.00 0.00 54 1023.1
20260509031530 60 27 0.0 2.0 0.00 0.00 0.00 51 1022.9
20260509024538 63 15 2.0 11.0 0.00 0.00 0.00 46 1022.2
20260509023031 64 24 2.0 8.0 0.00 0.00 0.00 44 1022.0
20260509021528 66 42 2.0 7.0 0.00 0.00 0.00 42 1021.9
20260509020136 67 57 1.0 5.0 0.00 0.00 0.00 41 1022.0
20260509014531 67 58 1.0 5.0 0.00 0.00 0.00 39 1021.8
20260509013030 67 35 2.0 9.0 0.00 0.00 0.00 39 1021.4
20260509010030 67 38 4.0 16.0 0.00 0.00 0.00 38 1020.8
20260509004532 67 44 4.0 11.0 0.00 0.00 0.00 37 1021.0
20260509003030 68 44 3.0 10.0 0.00 0.00 0.00 35 1021.2
20260509000108 68 59 4.0 10.0 0.00 0.00 0.00 33 1021.2
20260508234529 68 59 3.0 9.0 0.00 0.00 0.00 33 1021.1
20260508233031 68 52 3.0 11.0 0.00 0.00 0.00 34 1021.2
20260508231531 68 50 3.0 10.0 0.00 0.00 0.00 33 1021.2
20260508230029 69 50 3.0 7.0 0.00 0.00 0.00 33 1021.2
20260508224532 70 54 2.0 7.0 0.00 0.00 0.00 33 1021.3
20260508214530 67 59 2.0 8.0 0.00 0.00 0.00 35 1021.6
20260508213033 66 48 3.0 8.0 0.00 0.00 0.00 36 1021.6
20260508211530 67 45 3.0 8.0 0.00 0.00 0.00 36 1021.4
20260508210107 66 38 3.0 9.0 0.00 0.00 0.00 37 1021.2
20260508204607 67 51 2.0 7.0 0.00 0.00 0.00 38 1021.3